This is the latest recevied weather packets stored in our database for station/object GBTWP-2. If no packets are shown the sender has not sent any weather packets the latest 10 day(s).
| Time | Temp. | Humidity | Pressure | Rain* | Wind** | Luminosity | Snow |
|---|---|---|---|---|---|---|---|
| 1778079002 | 7.78° C | 61% | 1015.5 hPa | 0 mm | - | 87 W/m² | - |
| 1778078701 | 8.33° C | 59% | 1015.5 hPa | 0 mm | - | 91 W/m² | - |
| 1778078102 | 7.78° C | 58% | 1015.2 hPa | 0 mm | - | 77 W/m² | - |
| 1778077502 | 7.78° C | 63% | 1015.3 hPa | 0 mm | - | 72 W/m² | - |
| 1778077202 | 7.22° C | 61% | 1015.1 hPa | 0 mm | - | 63 W/m² | - |
| 1778076902 | 7.78° C | 60% | 1015 hPa | 0 mm | - | 49 W/m² | - |
| 1778075401 | 6.67° C | 65% | 1015 hPa | 0 mm | - | 33 W/m² | - |
| 1778074803 | 6.67° C | 66% | 1015 hPa | 0 mm | - | 29 W/m² | - |
| 1778074202 | 6.11° C | 67% | 1014.7 hPa | 0 mm | - | 34 W/m² | - |
| 1778073302 | 6.11° C | 67% | 1015 hPa | 0 mm | - | 30 W/m² | - |
| 1778073002 | 6.11° C | 67% | 1014.9 hPa | 0 mm | - | 31 W/m² | - |
| 1778071502 | 5.56° C | 67% | 1014.6 hPa | 0 mm | - | 24 W/m² | - |
| 1778071202 | 5.56° C | 69% | 1014.6 hPa | 0 mm | - | 25 W/m² | - |
| 1778070902 | 5° C | 69% | 1014.3 hPa | 0 mm | - | 24 W/m² | - |
| 1778070602 | 5° C | 71% | 1014.3 hPa | 0 mm | - | 25 W/m² | - |
| 1778070302 | 5.56° C | 69% | 1014.3 hPa | 0 mm | - | 25 W/m² | - |
| 1778070002 | 5.56° C | 70% | 1014.1 hPa | 0 mm | - | 27 W/m² | - |
| 1778069702 | 5° C | 73% | 1014.2 hPa | 0 mm | - | 33 W/m² | - |
| 1778069402 | 5° C | 73% | 1014.2 hPa | 0 mm | - | 32 W/m² | - |
| 1778068802 | 5° C | 73% | 1013.9 hPa | 0 mm | - | 36 W/m² | - |
| 1778068502 | 5.56° C | 74% | 1013.8 hPa | 0 mm | - | 43 W/m² | - |
| 1778068202 | 5° C | 74% | 1013.8 hPa | 0 mm | - | 55 W/m² | - |
| 1778067901 | 5° C | 76% | 1013.8 hPa | 0 mm | - | 70 W/m² | - |
| 1778067603 | 5° C | 77% | 1013.5 hPa | 0 mm | - | 33 W/m² | - |
| 1778067302 | 5° C | 76% | 1013.6 hPa | 0 mm | - | 43 W/m² | - |
* Rain latest hour (hover to see other rain measurements)
** Current wind speed in m/s (hover to see current wind gust speed)